QPF
0.01 0.01 0.00 0.01 0.04 0.08 0.10 0.10 0.09 0.06 0.05 0.07 0.07 0.07 0.08 0.06 0.06 0.07 0.12 0.16 0.16 0.16 0.14 0.12 0.13 0.14 0.12 0.09 0.06 0.05 0.04 0.04 0.05 0.04 0.02 0.02 0.02 0.03 0.03 0.02 0.02 0.02 0.01
0.03 0.02 0.02 0.02 0.06 0.09 0.15 0.21 0.18 0.13 0.09 0.09 0.07 0.06 0.08 0.07 0.07 0.06 0.10 0.14 0.14 0.14 0.15 0.13 0.13 0.15 0.14 0.10 0.08 0.08 0.07 0.05 0.05 0.04 0.03 0.03 0.03 0.04 0.03 0.02 0.02 0.02 0.02
0.04 0.05 0.05 0.04 0.05 0.10 0.13 0.20 0.21 0.17 0.12 0.09 0.06 0.05 0.05 0.05 0.07 0.06 0.07 0.10 0.12 0.15 0.15 0.12 0.12 0.13 0.13 0.11 0.09 0.08 0.07 0.06 0.05 0.04 0.04 0.04 0.05 0.04 0.04 0.03 0.02 0.02 0.02
0.05 0.07 0.09 0.07 0.05 0.09 0.10 0.11 0.15 0.13 0.10 0.08 0.07 0.05 0.04 0.04 0.06 0.09 0.11 0.11 0.11 0.15 0.16 0.16 0.15 0.14 0.13 0.12 0.09 0.08 0.06 0.06 0.05 0.04 0.04 0.04 0.04 0.04 0.03 0.03 0.03 0.02 0.03
0.07 0.08 0.11 0.08 0.04 0.06 0.10 0.09 0.09 0.08 0.08 0.07 0.06 0.06 0.06 0.05 0.08 0.14 0.15 0.14 0.14 0.15 0.17 0.17 0.15 0.14 0.13 0.10 0.08 0.07 0.06 0.06 0.07 0.05 0.04 0.03 0.03 0.03 0.03 0.03 0.03 0.03 0.03
0.06 0.06 0.09 0.09 0.06 0.05 0.09 0.12 0.10 0.07 0.08 0.07 0.05 0.05 0.07 0.05 0.08 0.11 0.12 0.13 0.13 0.13 0.13 0.13 0.10 0.11 0.13 0.09 0.06 0.06 0.07 0.06 0.07 0.06 0.06 0.05 0.04 0.03 0.03 0.03 0.04 0.03 0.03
0.05 0.06 0.07 0.08 0.07 0.06 0.07 0.11 0.11 0.09 0.09 0.06 0.05 0.05 0.07 0.08 0.08 0.08 0.09 0.10 0.09 0.08 0.10 0.10 0.09 0.06 0.08 0.09 0.06 0.05 0.06 0.06 0.07 0.07 0.07 0.07 0.05 0.04 0.03 0.04 0.05 0.05 0.04
0.06 0.06 0.07 0.08 0.08 0.07 0.07 0.08 0.08 0.09 0.08 0.06 0.05 0.05 0.07 0.12 0.09 0.08 0.07 0.06 0.05 0.05 0.06 0.06 0.07 0.07 0.06 0.07 0.06 0.05 0.05 0.05 0.06 0.07 0.07 0.06 0.06 0.05 0.05 0.04 0.05 0.05 0.05
0.05 0.07 0.08 0.09 0.08 0.07 0.08 0.06 0.05 0.06 0.06 0.06 0.04 0.03 0.03 0.06 0.08 0.07 0.05 0.04 0.04 0.04 0.05 0.05 0.05 0.05 0.05 0.05 0.06 0.06 0.05 0.04 0.05 0.06 0.07 0.07 0.07 0.05 0.05 0.05 0.05 0.05 0.07
0.05 0.04 0.05 0.07 0.07 0.07 0.08 0.07 0.05 0.04 0.05 0.05 0.04 0.03 0.02 0.02 0.04 0.06 0.06 0.04 0.04 0.04 0.06 0.06 0.05 0.05 0.04 0.03 0.03 0.04 0.05 0.05 0.04 0.04 0.05 0.05 0.06 0.08 0.07 0.06 0.06 0.07 0.09
0.03 0.03 0.03 0.05 0.07 0.06 0.07 0.07 0.06 0.05 0.04 0.04 0.03 0.03 0.02 0.02 0.02 0.04 0.04 0.04 0.04 0.04 0.04 0.05 0.04 0.06 0.04 0.03 0.02 0.03 0.03 0.03 0.04 0.04 0.04 0.04 0.04 0.04 0.05 0.07 0.08 0.08 0.09
0.02 0.02 0.03 0.03 0.05 0.07 0.07 0.07 0.07 0.07 0.05 0.06 0.04 0.03 0.03 0.03 0.02 0.02 0.03 0.03 0.03 0.04 0.04 0.04 0.04 0.04 0.04 0.03 0.02 0.02 0.02 0.02 0.02 0.03 0.04 0.04 0.04 0.05 0.04 0.04 0.05 0.07 0.09
0.01 0.01 0.02 0.03 0.03 0.04 0.05 0.06 0.07 0.06 0.05 0.06 0.06 0.04 0.04 0.04 0.03 0.02 0.03 0.03 0.03 0.03 0.04 0.04 0.03 0.03 0.05 0.03 0.03 0.03 0.02 0.02 0.02 0.01 0.02 0.02 0.03 0.07 0.05 0.03 0.03 0.04 0.05
0.01 0.01 0.02 0.03 0.03 0.03 0.04 0.05 0.06 0.06 0.07 0.07 0.07 0.06 0.06 0.05 0.04 0.03 0.03 0.03 0.02 0.02 0.03 0.04 0.03 0.02 0.05 0.04 0.03 0.03 0.02 0.02 0.02 0.02 0.01 0.01 0.01 0.03 0.03 0.02 0.02 0.02 0.02
0.03 0.02 0.03 0.03 0.03 0.04 0.05 0.05 0.06 0.06 0.07 0.07 0.07 0.08 0.08 0.07 0.05 0.05 0.04 0.04 0.03 0.02 0.02 0.03 0.03 0.02 0.03 0.03 0.03 0.02 0.02 0.02 0.02 0.02 0.01 0.01 0.01 0.02 0.01 0.01 0.01 0.01 0.01
0.04 0.04 0.05 0.05 0.04 0.04 0.05 0.06 0.06 0.05 0.05 0.06 0.06 0.07 0.08 0.07 0.06 0.05 0.05 0.04 0.04 0.03 0.02 0.02 0.03 0.03 0.02 0.03 0.03 0.03 0.03 0.03 0.03 0.02 0.02 0.02 0.01 0.01 0.01 0.01 0.01 0.01 0.01
0.04 0.05 0.05 0.05 0.05 0.04 0.04 0.04 0.05 0.05 0.05 0.05 0.06 0.07 0.07 0.07 0.07 0.06 0.05 0.04 0.06 0.05 0.04 0.03 0.03 0.04 0.05 0.04 0.04 0.04 0.05 0.05 0.04 0.04 0.03 0.02 0.02 0.02 0.01 0.00 0.00 0.01 0.01
0.03 0.03 0.04 0.04 0.04 0.03 0.02 0.02 0.03 0.04 0.05 0.05 0.05 0.05 0.05 0.06 0.05 0.04 0.04 0.04 0.04 0.06 0.06 0.06 0.05 0.05 0.06 0.07 0.06 0.05 0.06 0.07 0.06 0.06 0.05 0.04 0.04 0.03 0.02 0.01 0.01 0.01 0.01
0.02 0.01 0.01 0.01 0.02 0.02 0.01 0.01 0.01 0.02 0.02 0.02 0.03 0.04 0.05 0.06 0.06 0.04 0.04 0.04 0.04 0.04 0.05 0.05 0.05 0.05 0.06 0.07 0.07 0.06 0.06 0.06 0.08 0.08 0.06 0.05 0.04 0.04 0.04 0.03 0.03 0.02 0.02
0.01 0.01 0.01 0.01 0.01 0.02 0.01 0.01 0.01 0.01 0.02 0.02 0.02 0.03 0.04 0.07 0.06 0.06 0.06 0.05 0.05 0.04 0.04 0.04 0.04 0.05 0.05 0.05 0.05 0.06 0.06 0.06 0.06 0.06 0.05 0.04 0.04 0.04 0.04 0.04 0.04 0.04 0.03
0.01 0.01 0.01 0.01 0.01 0.01 0.01 0.02 0.01 0.02 0.02 0.02 0.02 0.02 0.04 0.07 0.05 0.06 0.07 0.05 0.04 0.05 0.04 0.04 0.04 0.03 0.04 0.05 0.04 0.04 0.04 0.04 0.05 0.05 0.05 0.04 0.03 0.02 0.02 0.03 0.03 0.04 0.04
0.02 0.02 0.01 0.01 0.01 0.01 0.02 0.02 0.02 0.01 0.01 0.01 0.02 0.01 0.02 0.04 0.06 0.06 0.06 0.06 0.05 0.05 0.05 0.04 0.04 0.03 0.03 0.03 0.04 0.03 0.05 0.05 0.04 0.04 0.05 0.04 0.03 0.03 0.02 0.02 0.02 0.02 0.02
0.03 0.02 0.02 0.02 0.01 0.01 0.02 0.02 0.01 0.01 0.01 0.01 0.01 0.01 0.01 0.01 0.03 0.04 0.06 0.06 0.07 0.07 0.07 0.06 0.06 0.06 0.05 0.04 0.05 0.04 0.04 0.06 0.07 0.07 0.05 0.05 0.05 0.04 0.02 0.02 0.03 0.02 0.02
0.04 0.04 0.04 0.03 0.02 0.02 0.02 0.02 0.01 0.01 0.01 0.00 0.01 0.01 0.01 0.01 0.01 0.02 0.03 0.04 0.06 0.06 0.07 0.07 0.08 0.08 0.08 0.06 0.05 0.05 0.05 0.05 0.05 0.07 0.06 0.05 0.05 0.06 0.04 0.03 0.03 0.03 0.03
0.05 0.04 0.04 0.03 0.03 0.03 0.03 0.02 0.02 0.01 0.01 0.01 0.00 0.00 0.01 0.01 0.02 0.02 0.02 0.03 0.04 0.04 0.06 0.06 0.05 0.05 0.06 0.08 0.06 0.06 0.06 0.05 0.03 0.03 0.04 0.04 0.04 0.05 0.06 0.04 0.04 0.04 0.03
0.09 0.07 0.04 0.03 0.03 0.03 0.03 0.03 0.02 0.01 0.01 0.01 0.00 0.00 0.01 0.01 0.03 0.05 0.03 0.03 0.03 0.03 0.04 0.04 0.03 0.03 0.03 0.04 0.05 0.06 0.05 0.04 0.02 0.02 0.03 0.03 0.03 0.03 0.03 0.04 0.03 0.02 0.01
MSLP
1009.47 1009.25 1009.06 1008.96 1008.97 1009.11 1009.39 1009.78 1010.24 1010.74 1011.24 1011.70 1012.13 1012.51 1012.86 1013.18 1013.51 1013.84 1014.18 1014.53 1014.90 1015.29 1015.70 1016.13 1016.58 1017.05 1017.53 1018.01 1018.46 1018.87 1019.21 1019.50 1019.72 1019.90 1020.05 1020.18 1020.32 1020.47 1020.61 1020.75 1020.86 1020.94 1020.99
1009.65 1009.42 1009.23 1009.14 1009.18 1009.37 1009.70 1010.13 1010.64 1011.19 1011.72 1012.21 1012.64 1013.01 1013.32 1013.60 1013.87 1014.14 1014.42 1014.74 1015.10 1015.50 1015.94 1016.41 1016.90 1017.41 1017.92 1018.39 1018.83 1019.20 1019.51 1019.76 1019.96 1020.12 1020.27 1020.41 1020.56 1020.72 1020.87 1021.00 1021.11 1021.18 1021.22
1009.75 1009.52 1009.36 1009.31 1009.39 1009.62 1009.99 1010.47 1011.02 1011.60 1012.15 1012.66 1013.09 1013.45 1013.75 1013.99 1014.22 1014.45 1014.70 1014.99 1015.33 1015.74 1016.19 1016.69 1017.22 1017.74 1018.26 1018.73 1019.14 1019.48 1019.75 1019.96 1020.13 1020.28 1020.42 1020.57 1020.73 1020.90 1021.06 1021.20 1021.31 1021.39 1021.43
1009.78 1009.57 1009.45 1009.44 1009.58 1009.85 1010.26 1010.77 1011.34 1011.93 1012.50 1013.01 1013.45 1013.82 1014.11 1014.35 1014.56 1014.76 1014.99 1015.27 1015.60 1016.00 1016.46 1016.96 1017.50 1018.03 1018.54 1018.99 1019.37 1019.68 1019.92 1020.10 1020.25 1020.38 1020.52 1020.67 1020.85 1021.03 1021.21 1021.36 1021.49 1021.57 1021.62
1009.79 1009.60 1009.51 1009.55 1009.73 1010.04 1010.47 1010.99 1011.56 1012.15 1012.72 1013.24 1013.69 1014.07 1014.38 1014.64 1014.87 1015.08 1015.31 1015.58 1015.91 1016.29 1016.74 1017.23 1017.75 1018.27 1018.76 1019.19 1019.55 1019.83 1020.05 1020.21 1020.34 1020.47 1020.61 1020.77 1020.96 1021.15 1021.34 1021.50 1021.63 1021.73 1021.79
1009.83 1009.66 1009.60 1009.67 1009.87 1010.19 1010.62 1011.12 1011.67 1012.23 1012.79 1013.31 1013.78 1014.19 1014.55 1014.86 1015.13 1015.38 1015.64 1015.92 1016.24 1016.61 1017.04 1017.50 1017.99 1018.48 1018.94 1019.34 1019.68 1019.95 1020.15 1020.31 1020.45 1020.58 1020.73 1020.90 1021.09 1021.28 1021.47 1021.64 1021.77 1021.86 1021.93
1009.96 1009.78 1009.73 1009.80 1010.00 1010.30 1010.69 1011.15 1011.65 1012.17 1012.70 1013.22 1013.71 1014.17 1014.59 1014.98 1015.32 1015.64 1015.95 1016.26 1016.59 1016.95 1017.35 1017.78 1018.23 1018.68 1019.10 1019.48 1019.80 1020.07 1020.27 1020.44 1020.59 1020.73 1020.89 1021.07 1021.26 1021.45 1021.62 1021.78 1021.90 1021.98 1022.04
1010.22 1010.02 1009.95 1009.99 1010.14 1010.39 1010.71 1011.10 1011.52 1011.99 1012.48 1012.98 1013.50 1014.01 1014.52 1014.99 1015.44 1015.84 1016.22 1016.58 1016.94 1017.30 1017.68 1018.07 1018.48 1018.88 1019.27 1019.63 1019.94 1020.21 1020.42 1020.61 1020.78 1020.94 1021.11 1021.28 1021.46 1021.64 1021.80 1021.92 1022.02 1022.08 1022.12
1010.61 1010.38 1010.26 1010.25 1010.33 1010.49 1010.72 1011.01 1011.34 1011.72 1012.16 1012.64 1013.18 1013.74 1014.32 1014.90 1015.45 1015.96 1016.42 1016.85 1017.24 1017.62 1017.99 1018.35 1018.73 1019.10 1019.46 1019.80 1020.10 1020.37 1020.60 1020.81 1020.99 1021.17 1021.35 1021.53 1021.70 1021.85 1021.98 1022.07 1022.13 1022.17 1022.18
1011.10 1010.83 1010.65 1010.57 1010.56 1010.63 1010.74 1010.91 1011.14 1011.43 1011.79 1012.25 1012.78 1013.38 1014.02 1014.69 1015.34 1015.96 1016.52 1017.02 1017.46 1017.87 1018.25 1018.61 1018.96 1019.31 1019.65 1019.97 1020.26 1020.54 1020.78 1021.00 1021.20 1021.39 1021.58 1021.75 1021.91 1022.05 1022.15 1022.21 1022.24 1022.24 1022.24
1011.63 1011.32 1011.08 1010.93 1010.84 1010.80 1010.80 1010.86 1010.97 1011.16 1011.45 1011.85 1012.36 1012.97 1013.65 1014.38 1015.12 1015.82 1016.47 1017.05 1017.56 1018.01 1018.42 1018.79 1019.14 1019.48 1019.80 1020.11 1020.40 1020.67 1020.91 1021.14 1021.35 1021.55 1021.74 1021.92 1022.07 1022.20 1022.29 1022.33 1022.34 1022.32 1022.29
1012.13 1011.79 1011.51 1011.30 1011.14 1011.01 1010.91 1010.86 1010.86 1010.95 1011.15 1011.48 1011.95 1012.54 1013.23 1013.99 1014.78 1015.54 1016.26 1016.92 1017.50 1018.01 1018.46 1018.86 1019.23 1019.57 1019.89 1020.19 1020.47 1020.73 1020.97 1021.20 1021.41 1021.62 1021.82 1022.00 1022.16 1022.29 1022.38 1022.42 1022.42 1022.40 1022.36
1012.53 1012.19 1011.90 1011.66 1011.44 1011.25 1011.08 1010.94 1010.85 1010.85 1010.95 1011.20 1011.59 1012.13 1012.79 1013.54 1014.34 1015.14 1015.91 1016.62 1017.27 1017.84 1018.34 1018.79 1019.19 1019.55 1019.88 1020.18 1020.46 1020.70 1020.93 1021.15 1021.36 1021.57 1021.78 1021.97 1022.15 1022.30 1022.41 1022.48 1022.50 1022.48 1022.44
1012.81 1012.50 1012.22 1011.97 1011.74 1011.52 1011.30 1011.10 1010.94 1010.85 1010.86 1011.02 1011.32 1011.77 1012.36 1013.06 1013.83 1014.63 1015.42 1016.18 1016.87 1017.51 1018.08 1018.58 1019.03 1019.42 1019.77 1020.08 1020.34 1020.58 1020.80 1021.01 1021.21 1021.42 1021.64 1021.86 1022.06 1022.25 1022.39 1022.49 1022.54 1022.55 1022.53
1012.98 1012.71 1012.47 1012.26 1012.04 1011.81 1011.58 1011.34 1011.13 1010.96 1010.90 1010.95 1011.14 1011.50 1011.99 1012.61 1013.31 1014.07 1014.86 1015.62 1016.36 1017.04 1017.67 1018.24 1018.74 1019.18 1019.55 1019.87 1020.14 1020.38 1020.59 1020.79 1020.99 1021.20 1021.43 1021.66 1021.90 1022.12 1022.31 1022.46 1022.55 1022.58 1022.58
1013.07 1012.87 1012.69 1012.51 1012.33 1012.13 1011.90 1011.65 1011.40 1011.18 1011.04 1011.00 1011.09 1011.32 1011.70 1012.21 1012.82 1013.52 1014.26 1015.02 1015.76 1016.48 1017.16 1017.78 1018.34 1018.83 1019.25 1019.59 1019.88 1020.12 1020.33 1020.53 1020.73 1020.94 1021.18 1021.43 1021.69 1021.94 1022.16 1022.34 1022.47 1022.54 1022.56
1013.14 1013.00 1012.88 1012.76 1012.62 1012.45 1012.24 1011.99 1011.73 1011.48 1011.28 1011.16 1011.15 1011.27 1011.52 1011.91 1012.42 1013.02 1013.69 1014.41 1015.14 1015.88 1016.58 1017.25 1017.86 1018.40 1018.87 1019.26 1019.58 1019.84 1020.06 1020.26 1020.46 1020.67 1020.91 1021.16 1021.43 1021.69 1021.93 1022.13 1022.28 1022.37 1022.41
1013.23 1013.15 1013.08 1013.01 1012.91 1012.77 1012.58 1012.35 1012.08 1011.81 1011.57 1011.39 1011.29 1011.31 1011.45 1011.72 1012.10 1012.60 1013.19 1013.84 1014.54 1015.26 1015.97 1016.67 1017.32 1017.91 1018.43 1018.87 1019.23 1019.54 1019.78 1020.00 1020.21 1020.41 1020.64 1020.87 1021.12 1021.36 1021.59 1021.78 1021.92 1022.02 1022.07
1013.36 1013.31 1013.28 1013.23 1013.16 1013.05 1012.88 1012.66 1012.41 1012.13 1011.86 1011.64 1011.48 1011.42 1011.46 1011.62 1011.89 1012.28 1012.77 1013.33 1013.97 1014.65 1015.35 1016.05 1016.73 1017.36 1017.93 1018.43 1018.85 1019.20 1019.49 1019.73 1019.94 1020.15 1020.34 1020.55 1020.75 1020.94 1021.12 1021.28 1021.40 1021.48 1021.53
1013.51 1013.47 1013.45 1013.41 1013.35 1013.25 1013.10 1012.89 1012.65 1012.38 1012.11 1011.87 1011.68 1011.56 1011.53 1011.59 1011.76 1012.04 1012.42 1012.89 1013.44 1014.05 1014.71 1015.40 1016.08 1016.74 1017.35 1017.91 1018.39 1018.80 1019.14 1019.42 1019.65 1019.84 1020.01 1020.16 1020.30 1020.43 1020.54 1020.63 1020.70 1020.75 1020.80
1013.65 1013.60 1013.56 1013.51 1013.44 1013.34 1013.19 1012.99 1012.76 1012.51 1012.26 1012.02 1011.82 1011.68 1011.60 1011.60 1011.69 1011.87 1012.14 1012.50 1012.95 1013.48 1014.07 1014.71 1015.38 1016.05 1016.70 1017.30 1017.85 1018.32 1018.72 1019.03 1019.28 1019.47 1019.61 1019.71 1019.77 1019.82 1019.84 1019.86 1019.87 1019.88 1019.91
1013.74 1013.66 1013.58 1013.50 1013.41 1013.28 1013.13 1012.94 1012.73 1012.50 1012.28 1012.08 1011.90 1011.76 1011.66 1011.62 1011.65 1011.74 1011.91 1012.17 1012.51 1012.93 1013.44 1014.01 1014.64 1015.30 1015.96 1016.60 1017.19 1017.72 1018.18 1018.54 1018.82 1019.01 1019.12 1019.18 1019.18 1019.14 1019.09 1019.03 1018.98 1018.95 1018.96
1013.75 1013.62 1013.50 1013.38 1013.24 1013.09 1012.92 1012.74 1012.55 1012.36 1012.19 1012.03 1011.89 1011.78 1011.69 1011.64 1011.62 1011.65 1011.74 1011.89 1012.12 1012.43 1012.83 1013.32 1013.88 1014.50 1015.15 1015.81 1016.44 1017.02 1017.52 1017.93 1018.24 1018.45 1018.56 1018.58 1018.54 1018.45 1018.33 1018.21 1018.11 1018.05 1018.04
1013.69 1013.51 1013.34 1013.16 1012.98 1012.79 1012.61 1012.43 1012.26 1012.12 1011.99 1011.90 1011.82 1011.75 1011.70 1011.65 1011.62 1011.60 1011.62 1011.67 1011.80 1011.99 1012.28 1012.67 1013.15 1013.70 1014.32 1014.97 1015.61 1016.21 1016.76 1017.21 1017.56 1017.80 1017.92 1017.95 1017.89 1017.77 1017.62 1017.47 1017.34 1017.26 1017.24
1013.59 1013.35 1013.12 1012.90 1012.67 1012.45 1012.25 1012.07 1011.93 1011.82 1011.75 1011.72 1011.70 1011.69 1011.69 1011.67 1011.64 1011.60 1011.56 1011.54 1011.57 1011.66 1011.84 1012.11 1012.49 1012.97 1013.52 1014.13 1014.76 1015.37 1015.94 1016.43 1016.82 1017.09 1017.25 1017.30 1017.26 1017.15 1017.01 1016.86 1016.72 1016.63 1016.61
1013.50 1013.21 1012.93 1012.65 1012.39 1012.14 1011.91 1011.74 1011.60 1011.53 1011.50 1011.52 1011.57 1011.62 1011.66 1011.69 1011.67 1011.63 1011.56 1011.49 1011.45 1011.45 1011.52 1011.69 1011.96 1012.34 1012.82 1013.37 1013.95 1014.55 1015.11 1015.62 1016.04 1016.36 1016.56 1016.66 1016.67 1016.61 1016.50 1016.37 1016.25 1016.17 1016.14
Thickness
5738 5738 5737 5736 5736 5737 5737 5736 5736 5735 5734 5734 5734 5734 5734 5734 5734 5735 5735 5736 5737 5736 5735 5734 5732 5731 5730 5728 5726 5725 5723 5722 5721 5719 5718 5717 5716 5715 5714 5713 5712 5711 5710
5736 5736 5736 5735 5734 5735 5735 5735 5735 5734 5732 5732 5732 5732 5732 5732 5732 5733 5733 5734 5734 5734 5733 5731 5730 5729 5728 5726 5725 5723 5722 5721 5719 5718 5717 5716 5715 5714 5713 5712 5711 5710 5710
5735 5734 5734 5733 5732 5732 5733 5733 5733 5732 5731 5730 5730 5730 5730 5730 5730 5730 5731 5732 5731 5731 5730 5729 5728 5727 5726 5724 5723 5722 5721 5720 5718 5717 5716 5715 5713 5713 5712 5711 5711 5710 5709
5733 5733 5732 5731 5731 5731 5731 5730 5729 5729 5728 5727 5727 5727 5727 5727 5727 5727 5728 5728 5728 5728 5727 5727 5726 5725 5724 5723 5722 5721 5720 5718 5717 5716 5714 5713 5712 5711 5711 5710 5710 5709 5708
5731 5730 5730 5729 5729 5729 5729 5728 5727 5726 5725 5725 5725 5725 5724 5724 5724 5724 5725 5725 5725 5725 5724 5724 5723 5722 5721 5721 5720 5719 5718 5717 5716 5714 5713 5712 5711 5710 5709 5709 5709 5708 5708
5728 5727 5727 5727 5726 5726 5725 5725 5723 5723 5723 5722 5722 5721 5721 5721 5721 5721 5721 5721 5721 5721 5721 5721 5720 5719 5719 5719 5718 5718 5717 5716 5714 5713 5712 5711 5710 5709 5708 5708 5708 5707 5707
5726 5725 5724 5724 5723 5723 5722 5722 5721 5720 5718 5719 5717 5715 5716 5717 5717 5717 5717 5718 5718 5718 5718 5717 5717 5717 5716 5716 5716 5715 5715 5714 5713 5712 5711 5710 5709 5708 5707 5707 5706 5706 5706
5722 5722 5721 5721 5720 5719 5718 5718 5718 5716 5715 5715 5713 5710 5707 5708 5711 5713 5713 5713 5714 5714 5714 5714 5713 5713 5713 5713 5713 5713 5712 5712 5711 5710 5709 5708 5707 5706 5705 5705 5705 5705 5704
5719 5718 5717 5717 5716 5716 5715 5715 5715 5714 5711 5711 5712 5710 5705 5702 5703 5706 5708 5709 5710 5711 5711 5711 5710 5710 5710 5710 5710 5710 5709 5709 5708 5707 5707 5706 5705 5704 5703 5703 5703 5703 5702
5714 5714 5714 5714 5713 5712 5712 5712 5712 5712 5711 5709 5709 5709 5709 5707 5702 5699 5702 5705 5707 5707 5708 5708 5708 5708 5708 5707 5707 5707 5706 5706 5705 5704 5704 5703 5702 5702 5702 5701 5701 5700 5700
5710 5710 5710 5710 5710 5709 5709 5709 5709 5709 5709 5708 5707 5706 5705 5704 5703 5700 5696 5699 5702 5704 5705 5705 5706 5706 5705 5705 5705 5704 5704 5703 5703 5702 5702 5701 5700 5700 5700 5699 5699 5698 5698
5705 5706 5706 5706 5706 5706 5706 5706 5706 5706 5706 5706 5705 5705 5704 5702 5700 5699 5696 5695 5695 5699 5701 5703 5703 5703 5703 5702 5702 5702 5702 5701 5701 5700 5700 5699 5698 5698 5698 5697 5696 5696 5696
5701 5701 5701 5702 5702 5702 5702 5703 5703 5703 5703 5703 5703 5702 5702 5702 5701 5699 5696 5693 5692 5694 5696 5699 5700 5701 5701 5700 5700 5699 5699 5699 5698 5698 5697 5697 5696 5696 5695 5695 5695 5694 5694
5698 5698 5698 5698 5698 5698 5699 5699 5699 5700 5700 5700 5700 5700 5699 5699 5699 5698 5696 5692 5689 5689 5691 5693 5696 5698 5698 5698 5698 5697 5696 5696 5696 5695 5695 5694 5694 5693 5693 5693 5692 5692 5692
5695 5694 5694 5694 5694 5694 5694 5695 5694 5695 5695 5696 5696 5696 5696 5696 5696 5696 5695 5694 5690 5686 5686 5689 5692 5694 5695 5695 5695 5694 5693 5693 5693 5693 5692 5692 5691 5691 5691 5690 5690 5690 5689
5691 5690 5690 5690 5690 5690 5690 5690 5689 5691 5691 5691 5691 5691 5692 5692 5692 5692 5692 5691 5690 5688 5685 5687 5688 5690 5691 5692 5691 5691 5691 5690 5690 5690 5689 5689 5688 5688 5688 5688 5687 5687 5687
5687 5686 5686 5685 5685 5686 5685 5685 5685 5686 5686 5687 5687 5687 5687 5688 5688 5688 5687 5687 5686 5685 5683 5684 5685 5686 5686 5687 5687 5687 5687 5686 5686 5686 5686 5685 5685 5685 5684 5684 5684 5684 5683
5682 5682 5681 5681 5681 5681 5681 5680 5680 5681 5681 5682 5683 5683 5683 5684 5683 5684 5683 5683 5682 5682 5681 5680 5680 5681 5682 5682 5682 5682 5682 5682 5682 5682 5682 5681 5681 5681 5680 5680 5680 5679 5679
5676 5676 5676 5676 5675 5676 5676 5676 5676 5677 5677 5678 5678 5679 5679 5679 5679 5679 5679 5679 5678 5679 5678 5677 5676 5676 5676 5677 5676 5677 5677 5677 5677 5678 5678 5678 5677 5676 5676 5676 5675 5675 5675
5671 5671 5670 5671 5671 5671 5671 5671 5671 5672 5673 5674 5674 5675 5675 5676 5675 5675 5675 5674 5674 5673 5672 5672 5671 5671 5670 5670 5670 5670 5670 5671 5671 5672 5673 5672 5672 5671 5671 5671 5670 5670 5670
5667 5666 5666 5666 5666 5667 5667 5666 5667 5668 5668 5668 5669 5670 5671 5672 5672 5672 5671 5670 5669 5668 5667 5666 5666 5665 5665 5664 5665 5665 5664 5665 5665 5666 5667 5667 5667 5666 5666 5666 5665 5665 5665
5661 5661 5661 5661 5661 5663 5663 5662 5662 5662 5662 5663 5663 5664 5666 5667 5668 5668 5667 5667 5666 5664 5663 5662 5661 5660 5661 5661 5660 5660 5659 5658 5659 5661 5660 5662 5661 5661 5662 5661 5661 5661 5660
5655 5655 5655 5656 5656 5657 5657 5657 5657 5657 5657 5658 5658 5659 5660 5662 5662 5662 5662 5662 5662 5661 5661 5659 5658 5657 5657 5657 5656 5655 5654 5654 5655 5656 5654 5656 5656 5656 5658 5658 5657 5656 5655
5649 5649 5650 5650 5651 5652 5652 5652 5652 5651 5651 5652 5653 5654 5654 5655 5656 5656 5656 5656 5656 5656 5656 5655 5655 5655 5655 5655 5653 5653 5651 5649 5649 5649 5649 5649 5651 5651 5653 5652 5653 5652 5651
5644 5644 5644 5645 5645 5646 5647 5647 5646 5645 5646 5646 5647 5648 5648 5649 5650 5650 5650 5650 5650 5651 5651 5651 5651 5651 5651 5650 5649 5647 5645 5643 5643 5644 5644 5643 5645 5645 5646 5647 5647 5647 5647
5638 5639 5639 5639 5639 5639 5640 5640 5640 5639 5639 5640 5641 5642 5643 5643 5644 5643 5643 5643 5644 5645 5645 5646 5646 5646 5646 5645 5644 5643 5642 5640 5639 5639 5640 5638 5638 5638 5639 5641 5641 5641 5641